sat.trackr.live / text

‹ back to catalog

STARLINK-2134

NORAD 47407 · 2021-005BL

PAYLOAD ACTIVE UNKNOWN

§ Identity

Operator
Country
US
Launch date
2021-01-20
Launch site
AFETR
Launch vehicle
Mass (kg)
RCS (m²)

Purposes: comms

External: N2YO · Heavens-Above · Gunter

§ Orbital elements

Epoch: 2026-09-09T04:40:42.551616Z

Period
93.88 min
Inclination
53.1569°
Eccentricity
0.0003010
Mean motion
15.33898779 rev/d
Perigee alt
462.1 km
Apogee alt
466.3 km
Semi-major
6,842.3 km
B*
1.2774e-3
RAAN
264.5554°
Arg perigee
50.4724°
Mean anomaly
309.6544°
Rev number
31,147

§ Raw data

STARLINK-21341 47407U 21005BL  26252.19493694  .00042349  00000+0  12774-2 0  99962 47407  53.1569 264.5554 0003010  50.4724 309.6544 15.33898779311477

JSON: /api/v1/satellites/47407 · /tle

For live sub-satellite position, see the globe view (requires WebGL).

§ Visibility from observer

Set your observer location to see the next 7 days of passes ≥ 10°. The values pass through the URL so the page stays shareable.

No JS? Fill the form by hand. The geolocation button needs JavaScript.